OZ1IEP-5 Weather Reports


time (UTC)temp
C
wind
direction
speed
KPH
gust
KPH
rain 1hr
cm
rain 24hr
cm
rain mn
cm
humidity
%
barometer
mb
20260509221006 6 134 0.0 0.0 0.00 0.00 0.00 77 1017.8
20260509220009 6 134 0.0 0.0 0.00 0.00 0.00 77 1017.9
20260509215006 6 134 0.0 0.0 0.00 0.00 0.00 76 1017.9
20260509214006 7 134 0.0 0.0 0.00 0.00 0.00 77 1018.1
20260509213008 7 134 0.0 0.0 0.00 0.00 0.00 77 1018.1
20260509212006 7 134 0.0 1.6 0.00 0.00 0.00 77 1018.1
20260509211006 7 134 0.0 1.6 0.00 0.00 0.00 76 1018.1
20260509210008 7 134 0.0 1.6 0.00 0.00 0.00 75 1018.2
20260509205005 7 134 0.0 1.6 0.00 0.00 0.00 74 1018.3
20260509204006 8 134 0.0 3.2 0.00 0.00 0.00 74 1018.3
20260509203008 8 133 0.0 4.8 0.00 0.00 0.00 74 1018.3
20260509202006 8 129 0.0 4.8 0.00 0.00 0.00 73 1018.3
20260509201005 8 120 0.0 4.8 0.00 0.00 0.00 71 1018.3
20260509200008 9 134 1.6 4.8 0.00 0.00 0.00 70 1018.4
20260509195006 9 139 0.0 8.0 0.00 0.00 0.00 68 1018.4
20260509194005 9 123 1.6 9.7 0.00 0.00 0.00 66 1018.3
20260509193008 10 130 1.6 9.7 0.00 0.00 0.00 63 1018.3
20260509192005 10 139 4.8 11.3 0.00 0.00 0.00 61 1018.3
20260509191006 10 136 3.2 16.1 0.00 0.00 0.00 60 1018.3
20260509190019 11 135 4.8 16.1 0.00 0.00 0.00 59 1018.2
20260509185005 11 130 3.2 11.3 0.00 0.00 0.00 58 1018.1
20260509184006 11 127 3.2 12.9 0.00 0.00 0.00 56 1017.9
20260509183008 12 128 6.4 19.3 0.00 0.00 0.00 53 1017.9
20260509182006 12 125 3.2 19.3 0.00 0.00 0.00 50 1017.9
20260509181006 13 146 8.0 20.9 0.00 0.00 0.00 46 1017.9
20260509180009 13 144 4.8 19.3 0.00 0.00 0.00 45 1018.0
20260509175008 13 140 8.0 19.3 0.00 0.00 0.00 44 1018.0
20260509174006 13 151 6.4 19.3 0.00 0.00 0.00 43 1018.0
20260509173008 13 134 8.0 19.3 0.00 0.00 0.00 42 1018.1
20260509172006 13 142 3.2 19.3 0.00 0.00 0.00 43 1018.2
20260509171006 13 149 8.0 20.9 0.00 0.00 0.00 43 1018.2
20260509170009 13 151 12.9 24.1 0.00 0.00 0.00 41 1018.2
20260509165006 13 150 11.3 19.3 0.00 0.00 0.00 42 1018.3
20260509164005 14 146 9.7 24.1 0.00 0.00 0.00 41 1018.3
20260509163009 14 132 11.3 24.1 0.00 0.00 0.00 41 1018.3
20260509162006 14 119 14.5 25.7 0.00 0.00 0.00 40 1018.3
20260509161005 15 152 9.7 22.5 0.00 0.00 0.00 41 1018.4
20260509160008 15 133 3.2 20.9 0.00 0.00 0.00 42 1018.5
20260509155006 15 133 11.3 20.9 0.00 0.00 0.00 39 1018.8
20260509154006 15 147 12.9 24.1 0.00 0.00 0.00 38 1018.8
20260509153009 16 143 12.9 20.9 0.00 0.00 0.00 39 1019.0
20260509152006 16 138 4.8 24.1 0.00 0.00 0.00 39 1018.9
20260509151006 16 129 8.0 20.9 0.00 0.00 0.00 39 1019.0
20260509150008 16 129 12.9 22.5 0.00 0.00 0.00 36 1019.3
20260509145005 16 128 6.4 22.5 0.00 0.00 0.00 37 1019.3
20260509144006 17 130 11.3 22.5 0.00 0.00 0.00 37 1019.3
20260509143009 17 142 14.5 20.9 0.00 0.00 0.00 36 1019.3
20260509142006 17 156 9.7 19.3 0.00 0.00 0.00 36 1019.4
20260509141006 17 144 12.9 19.3 0.00 0.00 0.00 37 1019.5
20260509140008 17 123 9.7 19.3 0.00 0.00 0.00 34 1019.7
20260509135006 17 166 9.7 22.5 0.00 0.00 0.00 35 1019.8
20260509134005 17 144 4.8 27.4 0.00 0.00 0.00 34 1019.9
20260509133008 17 139 8.0 20.9 0.00 0.00 0.00 34 1020.0
20260509132006 17 124 6.4 20.9 0.00 0.00 0.00 33 1020.2
20260509131006 17 73 3.2 22.5 0.00 0.00 0.00 35 1020.3
20260509130008 17 161 3.2 22.5 0.00 0.00 0.00 34 1020.4
20260509125006 17 175 11.3 19.3 0.00 0.00 0.00 36 1020.4
20260509124006 17 142 8.0 19.3 0.00 0.00 0.00 36 1020.4
20260509123009 17 187 3.2 11.3 0.00 0.00 0.00 36 1020.5
20260509122006 17 184 9.7 22.5 0.00 0.00 0.00 36 1020.7
20260509121005 17 207 1.6 11.3 0.00 0.00 0.00 38 1020.8
20260509120008 17 337 3.2 11.3 0.00 0.00 0.00 36 1020.9
20260509115006 17 151 4.8 16.1 0.00 0.00 0.00 35 1021.0
20260509114006 17 126 3.2 11.3 0.00 0.00 0.00 34 1021.0
20260509113009 16 154 8.0 12.9 0.00 0.00 0.00 38 1021.0
20260509112006 16 92 1.6 8.0 0.00 0.00 0.00 35 1021.1
20260509111006 16 170 0.0 12.9 0.00 0.00 0.00 35 1021.2
20260509110008 16 110 1.6 8.0 0.00 0.00 0.00 35 1021.3
20260509105006 15 140 3.2 8.0 0.00 0.00 0.00 36 1021.4
20260509104005 16 54 3.2 19.3 0.00 0.00 0.00 34 1021.4
20260509103009 15 82 0.0 8.0 0.00 0.00 0.00 34 1021.5
20260509102006 16 71 0.0 8.0 0.00 0.00 0.00 31 1021.5
20260509101006 16 153 1.6 16.1 0.00 0.00 0.00 35 1021.5
20260509100009 16 156 3.2 9.7 0.00 0.00 0.00 34 1021.5
20260509095006 15 155 1.6 9.7 0.00 0.00 0.00 35 1021.5
20260509094007 15 171 1.6 11.3 0.00 0.00 0.00 33 1021.4
20260509093008 15 141 1.6 16.1 0.00 0.00 0.00 31 1021.5
20260509092006 15 120 1.6 9.7 0.00 0.00 0.00 32 1021.5
20260509091005 14 144 6.4 16.1 0.00 0.00 0.00 32 1021.5
20260509090008 14 139 6.4 16.1 0.00 0.00 0.00 32 1021.6
20260509085006 13 108 0.0 4.8 0.00 0.00 0.00 33 1021.6
20260509084006 13 92 1.6 9.7 0.00 0.00 0.00 35 1021.8
20260509083009 12 90 3.2 19.3 0.00 0.00 0.00 36 1021.7
20260509082007 12 112 8.0 20.9 0.00 0.00 0.00 37 1021.9
20260509081006 12 62 1.6 4.8 0.00 0.00 0.00 40 1021.9
20260509080009 11 98 0.0 11.3 0.00 0.00 0.00 42 1021.9
20260509075006 11 131 3.2 14.5 0.00 0.00 0.00 44 1021.9
20260509074007 11 83 1.6 11.3 0.00 0.00 0.00 45 1022.0
20260509073011 10 121 1.6 11.3 0.00 0.00 0.00 46 1022.0
20260509072006 10 106 3.2 11.3 0.00 0.00 0.00 48 1022.0
20260509071007 10 116 4.8 14.5 0.00 0.00 0.00 49 1022.0
20260509070010 10 115 4.8 11.3 0.00 0.00 0.00 51 1022.1
20260509065007 9 75 0.0 4.8 0.00 0.00 0.00 55 1022.1
20260509064006 9 39 0.0 4.8 0.00 0.00 0.00 55 1022.1
20260509063009 8 124 1.6 8.0 0.00 0.00 0.00 57 1022.1
20260509062008 8 60 0.0 8.0 0.00 0.00 0.00 60 1022.0
20260509061006 8 62 0.0 4.8 0.00 0.00 0.00 63 1022.0
20260509060008 7 62 0.0 8.0 0.00 0.00 0.00 63 1022.1
20260509055005 7 68 0.0 3.2 0.00 0.00 0.00 67 1022.2
20260509054006 6 124 0.0 3.2 0.00 0.00 0.00 71 1022.1
20260509053008 6 118 1.6 4.8 0.00 0.00 0.00 74 1022.2
20260509052006 6 97 1.6 4.8 0.00 0.00 0.00 75 1022.2
20260509051006 6 88 0.0 0.0 0.00 0.00 0.00 76 1022.2
20260509050008 5 87 0.0 1.6 0.00 0.00 0.00 77 1022.2
20260509045006 5 95 0.0 1.6 0.00 0.00 0.00 79 1022.2
20260509044005 4 68 0.0 0.0 0.00 0.00 0.00 81 1022.2
20260509043009 3 68 0.0 0.0 0.00 0.00 0.00 81 1022.1
20260509042006 3 68 0.0 1.6 0.00 0.00 0.00 80 1022.2
20260509041006 3 68 0.0 0.0 0.00 0.00 0.00 80 1022.1
20260509040008 3 68 0.0 1.6 0.00 0.00 0.00 79 1022.1
20260509035006 2 73 0.0 1.6 0.00 0.00 0.00 79 1022.2
20260509034006 2 72 0.0 0.0 0.00 0.00 0.00 79 1022.2
20260509033008 2 78 0.0 0.0 0.00 0.00 0.00 78 1022.3
20260509032005 2 79 0.0 1.6 0.00 0.00 0.00 76 1022.4
20260509031006 2 79 0.0 1.6 0.00 0.00 0.00 75 1022.5
20260509030008 2 79 0.0 1.6 0.00 0.00 0.00 75 1022.4
20260509025005 2 81 0.0 0.0 0.00 0.00 0.00 75 1022.5
20260509024006 2 81 0.0 0.0 0.00 0.00 0.00 75 1022.4
20260509023008 3 81 0.0 1.6 0.00 0.00 0.00 75 1022.4
20260509022005 3 91 0.0 0.0 0.00 0.00 0.00 74 1022.4
20260509021006 3 91 0.0 0.0 0.00 0.00 0.00 74 1022.5
20260509020008 3 91 0.0 1.6 0.00 0.00 0.00 73 1022.5
20260509015006 3 101 0.0 0.0 0.00 0.00 0.00 73 1022.5
20260509014006 3 101 0.0 0.0 0.00 0.00 0.00 72 1022.5
20260509013008 3 101 0.0 0.0 0.00 0.00 0.00 72 1022.7
20260509012005 3 101 0.0 0.0 0.00 0.00 0.00 71 1022.7
20260509011006 3 102 0.0 0.0 0.00 0.00 0.00 70 1022.9
20260509010008 3 102 0.0 0.0 0.00 0.00 0.00 70 1022.9
20260509005006 4 102 0.0 0.0 0.00 0.00 0.00 68 1022.9
20260509004006 4 103 0.0 1.6 0.00 0.00 0.00 67 1023.0
20260509003008 4 105 0.0 0.0 0.00 0.00 0.00 65 1023.0
20260509002005 5 105 0.0 0.0 0.00 0.00 0.00 65 1023.0
20260509001006 5 105 0.0 0.0 0.00 0.00 0.00 65 1023.0
20260509000008 5 105 0.0 0.0 0.00 0.00 0.00 63 1023.1
20260508235005 5 105 0.0 1.6 0.00 0.00 0.00 63 1023.1
20260508234005 6 105 0.0 1.6 0.00 0.00 0.00 61 1023.3
20260508233008 6 105 0.0 3.2 0.00 0.00 0.00 60 1023.4
20260508232005 6 106 1.6 8.0 0.00 0.00 0.00 59 1023.4
20260508231005 6 112 3.2 16.1 0.00 0.00 0.00 59 1023.4
20260508230007 6 119 6.4 16.1 0.00 0.00 0.00 60 1023.3
20260508225006 6 120 8.0 19.3 0.00 0.00 0.00 60 1023.4
20260508224006 6 111 3.2 12.9 0.00 0.00 0.00 63 1023.2
20260508223008 6 116 4.8 14.5 0.00 0.00 0.00 67 1023.2
20260508222006 6 115 3.2 8.0 0.00 0.00 0.00 72 1023.1